Location: Ar Ranvel
(48.3000°N, 4.8833°W)
Time: 13:58:52
(UTC+00:00)

Cosmos 1674 - Pass Details

Date: 16 June 2021
Orbit: 494 x 515 km, 82.5° (Epoch: 29 July)

Event Time Altitude Azimuth Distance (km) Brightness Sun altitude
Exits shadow 21:56:53 - 195° (SSW) 1,904 5.2 -11.4°
Reaches altitude 10° 21:57:23 10° 196° (SSW) 1,697 4.9 -11.5°
Maximum altitude 22:01:05 71° 280° (W) 531 2.8 -11.8°
Drops below altitude 10° 22:04:49 10° 5° (N) 1,705 6.2 -12.2°
Sets 22:06:57 0° 8° (N) 2,592 7.1 -12.3°
